Regional Weather Roundup
Issued by NWS New Orleans/Baton Rouge, LA

Home | Current Version | Previous Version | Graphics & Text | Print | Product List | Glossary On
Versions: 1 2 3 4 5 6 7 8 9 10 11 12 13 14 15 16 17 18 19 20 21 22 23 24 25 26 27 28 29 30 31 32 33 34 35 36 37 38 39 40 41 42 43 44 45 46 47 48 49 50
491
ASUS44 KLIX 011601
RWRLIX
NEW ORLEANS REGIONAL WEATHER ROUNDUP
NATIONAL WEATHER SERVICE NEW ORLEANS LA
1100 AM CDT WED OCT 01 2014

NOTE: "FAIR" INDICATES FEW OR NO CLOUDS BELOW 12,000 FEET WITH NO
      SIGNIFICANT WEATHER AND/OR OBSTRUCTIONS TO VISIBILITY.
      SKY/WX - SKY CONDITION AND SIGNIFICANT WEATHER.
      TMP - AIR TEMPERATURE.     DP    - DEWPOINT TEMPERATURE.
      RH  - RELATIVE HUMIDITY.   PRES  - PRESSURE.
      HI  - HEAT INDEX.          WCI   - WIND CHILL INDEX.

*  THESE STATIONS ARE NOT NWS OR FAA STATIONS AND ARE NOT UNDER
   NWS QUALITY CONTROL.

LAZ038-040-048-061>063-065>067-069-011700-
SOUTHEAST LOUISIANA

CITY           SKY/WX    TMP DP  RH WIND       PRES   REMARKS
N.O. AUDUBON     N/A     82  74  78 MISG        N/A
N.O. INTL ARPT LGT RAIN  81  72  74 SE10      29.96R
N.O. LAKEFRONT CLOUDY    82  72  71 SE10      29.97R
N.O. DOWNTOWN* PTSUNNY   81  70  69 SE7       29.97R
SLIDELL        PTSUNNY   83  71  67 SE8       29.96R
BATON ROUGE    CLOUDY    78  74  87 E6        29.95R
BOOTHVILLE     LGT RAIN  80  75  84 SE5       29.95F
BELLE CHASSE   TSTM      80  73  79 SE8       29.96R
BOGALUSA*        N/A     83  70  64 S5        29.98S
GALLIANO*      NOT AVBL
NEW ROADS*     PTSUNNY   78  74  86 SE8       29.94S
GONZALES*      LGT RAIN  77  77 100 E3        29.94R
HAMMOND*       NOT AVBL
HOUMA*         PTSUNNY  N/A N/A N/A E3        29.94S
PORT FOURCHON* NOT AVBL

$$

MSZ070-080>082-011700-
SOUTHERN MISSISSIPPI

CITY           SKY/WX    TMP DP  RH WIND       PRES   REMARKS
MCCOMB         MOSUNNY   80  70  71 SE9       29.97S
GULFPORT       MOSUNNY   82  71  69 SE8       29.96R
BILOXI         MOSUNNY   83  72  67 S7        29.97S
PASCAGOULA     PTSUNNY   82  70  66 SW5       29.97R
STENNIS ARPT*  PTSUNNY   82  70  65 SE9       29.97R

$$

COASTAL OBSERVATIONS
LAKE AND NEARSHORE STATIONS

STATION/POSITION TIME  TEMP    WIND        PRES    WAVE
                       AIR SEA DIR/SP/G            HT/PER
                 (UTC) (F)     (DEG/KT/KT) (MB)    (FT/S)
PASCAGOULA       1500   81     130/  6/  9 1014.5
WAVELAND YACHT   1500   78     130/ 10/ 10 1014.1
GRAND ISLE       1500   78 81  130/  4/  6 1014.7
SOUTHWEST PASS   1500   78 85  150/  5/  7 1014.2
NEW CANAL        1500   81 77  150/  1/  5 1014.5
SHELL BEACH      1500   80 75  130/ 10/ 13 1014.3

OFFSHORE STATIONS

STATION/POSITION TIME  TEMP    WIND        PRES    WAVE
                       AIR SEA DIR/SP/G            HT/PER
                 (UTC) (F)     (DEG/KT/KT) (MB)    (FT/S)
64 S DAUPHIN ISL 1452   80 83  130/  8/  8 1015.1    1/ 4

$$




USA.gov is the U.S. government's official web portal to all federal, state and local government web resources and services.